(91569) = 1999 RX248 = 2002 GP151

Discovered at Socorro on 1999-09-07 by LINEAR.

Orbit

Orbit type: Main Belt

Note: WebGL enabled browser required.

epoch2024-03-31.0
epoch JD2460400.5
perihelion date2024-08-25.35147
perihelion JD2460547.85147
argument of perihelion (°)319.55644
ascending node (°)185.19364
inclination (°)8.99167
eccentricity0.0967318
perihelion distance (AU)2.5020154
Tisserand w.r.t. Jupiter3.3
ΔV w.r.t. Earth (km/sec)10.3
semimajor axis (AU)2.7699586
mean anomaly (°)328.49725
mean daily motion (°/day)0.21379320
aphelion distance (AU)3.038
period (years)4.61
P-vector [x]-0.81592072
P-vector [y]0.56256427
P-vector [z]0.13339726
Q-vector [x]-0.57799068
Q-vector [y]-0.78802260
Q-vector [z]-0.21200743
absolute magnitude15.26
phase slope0.15
uncertainty0
referenceMPEC 2024-C107
observations used1034
oppositions21
arc length (days)11207
first opposition used1993
last opposition used2024
residual rms (arc-secs)0.74
perturbers coarse indicatorM-v
perturbers precise indicator003Ek
first observation date used1993-05-20.0
last observation date used2024-01-25.0
computer nameMPCLINUX
JD of orbit computation2456966.796955
perihelion JD uncertainty (days)1.3659E-04
argument of perihelion uncertainty (°)4.1092E-05
ascending node uncertainty (°)2.9870E-05
inclination uncertainty (°)6.3913E-06
eccentricity uncertainty 4.9533E-08
perihelion distance uncertainty (AU)1.4333E-07
Minimum Orbit Intersection Distances (in AU)
for orbit epoch: 2460400.5, reference: E2024-FA5
Mercury2.14616
Venus1.79509
Earth1.52102
Mars0.86732
Jupiter1.97717
Saturn6.38589
Uranus15.919
Neptune26.9045

Observations

1062 total observations over interval: 1993 05 20.29173 – 2024 01 25.384176
These data are available for download (format description).

Date (UT) J2000 RA J2000 Dec Magn Location Ref
1993 05 20.29173 15 26 42.87 -07 46 09.5 18.7 V 691 – Steward Observatory, Kitt Peak-Spacewatch MPS 175870
1993 05 20.32352 15 26 41.26 -07 46 00.9   691 – Steward Observatory, Kitt Peak-Spacewatch MPS 175870
1993 05 20.35578 15 26 39.64 -07 45 52.0   691 – Steward Observatory, Kitt Peak-Spacewatch MPS 175870
1999 09 07.34599 23 29 15.66 +00 36 25.2 19.0   704 – Lincoln Laboratory ETS, New Mexico MPS 16514
1999 09 07.35779 23 29 15.10 +00 36 19.9 19.6   704 – Lincoln Laboratory ETS, New Mexico MPS 16514
1999 09 07.36961 23 29 14.56 +00 36 14.9 19.7   704 – Lincoln Laboratory ETS, New Mexico MPS 16514
1999 09 07.38159 23 29 14.07 +00 36 09.6 19.9   704 – Lincoln Laboratory ETS, New Mexico MPS 16514
1999 09 14.21399 23 24 09.31 -00 13 54.7 19.3   704 – Lincoln Laboratory ETS, New Mexico MPS 16514
1999 09 14.23978 23 24 08.11 -00 14 07.2 19.2   704 – Lincoln Laboratory ETS, New Mexico MPS 16514
1999 09 14.25280 23 24 07.39 -00 14 11.8 19.5   704 – Lincoln Laboratory ETS, New Mexico MPS 16514
2001 01 21.18399 05 18 39.93 +09 56 30.6 19.1   704 – Lincoln Laboratory ETS, New Mexico MPS 56923
2001 01 21.20156 05 18 39.57 +09 56 34.7 19.5   704 – Lincoln Laboratory ETS, New Mexico MPS 56923
2001 01 21.21961 05 18 39.09 +09 56 38.2 19.3   704 – Lincoln Laboratory ETS, New Mexico MPS 56923
2001 01 21.23594 05 18 38.71 +09 56 40.6 19.8   704 – Lincoln Laboratory ETS, New Mexico MPS 56923
2002 04 10.30567 14 03 14.70 -06 53 04.2 19.0   704 – Lincoln Laboratory ETS, New Mexico MPS 57565
2002 04 10.31804 14 03 14.18 -06 52 58.3 19.4   704 – Lincoln Laboratory ETS, New Mexico MPS 57565
2002 04 10.32966 14 03 13.61 -06 52 52.3 18.8   704 – Lincoln Laboratory ETS, New Mexico MPS 57565
2002 04 10.34105 14 03 13.10 -06 52 47.0 19.1   704 – Lincoln Laboratory ETS, New Mexico MPS 57565
2002 04 10.35243 14 03 12.62 -06 52 41.8 19.2   704 – Lincoln Laboratory ETS, New Mexico MPS 57565
2002 04 14.39393 14 00 11.65 -06 20 27.5 18.2   644 – Palomar Mountain/NEAT MPS 57565
2002 04 14.40471 14 00 11.11 -06 20 22.3 18.2   644 – Palomar Mountain/NEAT MPS 57565
2002 04 14.41765 14 00 10.50 -06 20 16.0 18.1   644 – Palomar Mountain/NEAT MPS 57565
2002 04 14.51777 14 00 05.88 -06 19 25.7 19.9   608 – Haleakala-AMOS MPS 57565
2002 04 14.52889 14 00 05.33 -06 19 20.8 19.9   608 – Haleakala-AMOS MPS 57565
2002 04 14.53980 14 00 04.83 -06 19 15.5 20.3   608 – Haleakala-AMOS MPS 57565
2002 04 15.34173 13 59 28.35 -06 12 56.9 18.5 R 699 – Lowell Observatory-LONEOS MPS 57565
2002 04 15.36145 13 59 27.42 -06 12 46.9   699 – Lowell Observatory-LONEOS MPS 57565
2002 04 15.38118 13 59 26.47 -06 12 37.4   699 – Lowell Observatory-LONEOS MPS 57565
2002 04 15.40080 13 59 25.53 -06 12 28.2   699 – Lowell Observatory-LONEOS MPS 57565
2002 04 17.33463 13 57 56.46 -05 57 12.8 18.7   704 – Lincoln Laboratory ETS, New Mexico MPS 57565
2002 04 17.34850 13 57 55.86 -05 57 06.5 19.0   704 – Lincoln Laboratory ETS, New Mexico MPS 57565
2002 04 17.36235 13 57 55.17 -05 57 00.3 19.1   704 – Lincoln Laboratory ETS, New Mexico MPS 57565
2002 04 17.37615 13 57 54.49 -05 56 54.2 18.9   704 – Lincoln Laboratory ETS, New Mexico MPS 57565
2002 04 17.38995 13 57 53.85 -05 56 47.5 18.8   704 – Lincoln Laboratory ETS, New Mexico MPS 57565
2002 05 08.27035 13 42 46.96 -03 32 55.3 18.9   704 – Lincoln Laboratory ETS, New Mexico MPS 57565
2002 05 08.28299 13 42 46.32 -03 32 50.4 19.3   704 – Lincoln Laboratory ETS, New Mexico MPS 57565
2002 05 08.29548 13 42 45.90 -03 32 46.3 19.0   704 – Lincoln Laboratory ETS, New Mexico MPS 57565
2002 05 08.30786 13 42 45.43 -03 32 41.9 19.4   704 – Lincoln Laboratory ETS, New Mexico MPS 57565
2002 05 08.32028 13 42 45.00 -03 32 38.1 19.3   704 – Lincoln Laboratory ETS, New Mexico MPS 57565
2002 05 08.35757 13 42 43.56 -03 32 24.3 18.9   644 – Palomar Mountain/NEAT MPS 57565
2002 05 08.37836 13 42 42.77 -03 32 17.8 18.8   644 – Palomar Mountain/NEAT MPS 57565
2002 05 08.39919 13 42 41.97 -03 32 10.7 19.8   644 – Palomar Mountain/NEAT MPS 57565
2002 05 18.22254 13 37 33.12 -02 46 52.6 18.3   704 – Lincoln Laboratory ETS, New Mexico MPS 57565
2002 05 18.23751 13 37 32.69 -02 46 49.6 19.6   704 – Lincoln Laboratory ETS, New Mexico MPS 57565
2002 05 18.25248 13 37 32.32 -02 46 45.5 18.8   704 – Lincoln Laboratory ETS, New Mexico MPS 57565
2002 05 18.26747 13 37 31.89 -02 46 42.5 19.3   704 – Lincoln Laboratory ETS, New Mexico MPS 57565
2002 05 18.28252 13 37 31.46 -02 46 38.5 19.0   704 – Lincoln Laboratory ETS, New Mexico MPS 57566
2003 06 05.39402 20 38 46.18 -07 00 04.0 21.1 V 691 – Steward Observatory, Kitt Peak-Spacewatch MPS 79597
2003 06 05.42068 20 38 46.01 -07 00 00.4 20.7 V 691 – Steward Observatory, Kitt Peak-Spacewatch MPS 79597
2003 06 05.44445 20 38 45.86 -06 59 56.9 21.0 V 691 – Steward Observatory, Kitt Peak-Spacewatch MPS 79597
2004 09 08.49161 01 57 21.68 +09 26 06.8 19.9   644 – Palomar Mountain/NEAT MPS 112513
2004 09 08.50147 01 57 21.55 +09 26 04.1 19.8   644 – Palomar Mountain/NEAT MPS 112513
2004 09 08.51163 01 57 21.40 +09 26 01.5 19.7   644 – Palomar Mountain/NEAT MPS 112513
2004 09 17.32926 01 54 36.06 +08 41 10.1 19.4   704 – Lincoln Laboratory ETS, New Mexico MPS 114068
2004 09 17.34102 01 54 35.72 +08 41 06.6 20.0   704 – Lincoln Laboratory ETS, New Mexico MPS 114068
2004 09 17.36451 01 54 35.07 +08 40 58.5 20.2   704 – Lincoln Laboratory ETS, New Mexico MPS 114068
2004 09 17.37625 01 54 34.84 +08 40 54.7 20.0   704 – Lincoln Laboratory ETS, New Mexico MPS 114068
2004 09 17.39850 01 54 34.29 +08 40 48.3 19.3 R 699 – Lowell Observatory-LONEOS MPS 114068
2004 09 17.41144 01 54 33.92 +08 40 42.7   699 – Lowell Observatory-LONEOS MPS 114068
2004 09 17.42442 01 54 33.57 +08 40 37.3   699 – Lowell Observatory-LONEOS MPS 114068
2004 09 17.43738 01 54 33.28 +08 40 33.5   699 – Lowell Observatory-LONEOS MPS 114068
2004 09 17.44153 01 54 33.09 +08 40 32.5 19.5 V 691 – Steward Observatory, Kitt Peak-Spacewatch MPS 112529
2004 09 17.46788 01 54 32.40 +08 40 23.4 19.5 V 691 – Steward Observatory, Kitt Peak-Spacewatch MPS 112529
2004 09 17.49448 01 54 31.71 +08 40 14.3 19.5 V 691 – Steward Observatory, Kitt Peak-Spacewatch MPS 112529
2004 09 24.29330 01 51 16.11 +07 58 48.3 19.0 C 704 – Lincoln Laboratory ETS, New Mexico MPS 291093
2004 09 24.30549 01 51 15.68 +07 58 43.8 18.8 C 704 – Lincoln Laboratory ETS, New Mexico MPS 291093
2004 09 24.31770 01 51 15.27 +07 58 39.9 19.3 C 704 – Lincoln Laboratory ETS, New Mexico MPS 291093
2004 10 04.26058 01 45 02.06 +06 49 59.7 18.8 R 699 – Lowell Observatory-LONEOS MPS 115551
2004 10 04.28003 01 45 01.16 +06 49 50.2   699 – Lowell Observatory-LONEOS MPS 115551
2004 10 04.29947 01 45 00.31 +06 49 40.5   699 – Lowell Observatory-LONEOS MPS 115551
2004 10 04.31895 01 44 59.40 +06 49 32.3   699 – Lowell Observatory-LONEOS MPS 115551
2004 10 07.18423 01 42 56.91 +06 28 30.2 18.7 R 699 – Lowell Observatory-LONEOS MPS 115551
2004 10 07.20367 01 42 56.15 +06 28 22.1   699 – Lowell Observatory-LONEOS MPS 115551
2004 10 07.22314 01 42 55.18 +06 28 12.5   699 – Lowell Observatory-LONEOS MPS 115551
2004 10 07.24262 01 42 54.33 +06 28 03.4   699 – Lowell Observatory-LONEOS MPS 115551
2004 10 07.28754 01 42 52.17 +06 27 44.0 18.8   704 – Lincoln Laboratory ETS, New Mexico MPS 115551
2004 10 07.29866 01 42 51.75 +06 27 39.3 18.9   704 – Lincoln Laboratory ETS, New Mexico MPS 115551
2004 10 07.30970 01 42 51.14 +06 27 34.7 19.4   704 – Lincoln Laboratory ETS, New Mexico MPS 115551
2004 10 07.32090 01 42 50.65 +06 27 30.1 19.1   704 – Lincoln Laboratory ETS, New Mexico MPS 115551
2005 12 04.37653 09 14 48.67 +04 51 26.5 19.4 R 699 – Lowell Observatory-LONEOS MPS 154999
2005 12 04.40476 09 14 49.10 +04 51 19.8   699 – Lowell Observatory-LONEOS MPS 154999
2005 12 04.43298 09 14 49.73 +04 51 11.6   699 – Lowell Observatory-LONEOS MPS 154999
2005 12 04.46126 09 14 50.23 +04 51 04.3   699 – Lowell Observatory-LONEOS MPS 154999
2006 01 10.38043 09 10 37.41 +03 51 22.1 19.4 V 703 – Catalina Sky Survey MPS 159730
2006 01 10.38884 09 10 36.94 +03 51 23.2 19.4 V 703 – Catalina Sky Survey MPS 159730
2006 01 10.39727 09 10 36.62 +03 51 25.8 19.6 V 703 – Catalina Sky Survey MPS 159730
